DW5425 Weather Reports


Display with metric or nautical units.
time (UTC)temp
F
wind
direction
speed
MPH
gust
MPH
rain 1hr
in
rain 24hr
in
rain mn
in
humidity
%
barometer
mb
20260507073504 53 307 5.0 10.0 0.00 0.28 0.00 53 1010.5
20260507072504 53 325 3.0 9.0 0.00 0.28 0.00 55 1010.5
20260507072004 53 305 5.0 9.0 0.00 0.28 0.00 55 1010.6
20260507071004 53 307 5.0 10.0 0.00 0.28 0.00 56 1010.5
20260507070504 53 309 3.0 12.0 0.00 0.28 0.00 58 1010.5
20260507070008 53 307 3.0 8.0 0.00 0.28 0.00 60 1010.5
20260507064003 53 310 3.0 3.0 0.00 0.28 0.00 63 1010.6
20260507063004 54 294 3.0 7.0 0.00 0.28 0.00 63 1010.6
20260507061504 54 274 4.0 10.0 0.00 0.28 0.00 64 1010.5
20260507060504 54 302 4.0 8.0 0.00 0.28 0.00 65 1010.6
20260507054505 54 314 5.0 10.0 0.00 0.28 0.00 69 1010.3
20260507053504 54 302 5.0 9.0 0.00 0.28 0.00 70 1010.3
20260507052503 54 319 4.0 6.0 0.00 0.28 0.00 71 1010.3
20260507051503 55 308 3.0 7.0 0.00 0.28 0.00 71 1010.3
20260507050503 55 310 3.0 7.0 0.00 0.28 0.00 71 1010.5
20260507044505 55 326 2.0 7.0 0.00 0.28 0.00 71 1010.4
20260507044004 55 355 2.0 5.0 0.00 0.28 0.00 72 1010.3
20260507043003 55 300 3.0 7.0 0.00 0.28 0.00 72 1010.6
20260507042004 56 300 2.0 3.0 0.00 0.28 0.00 72 1010.3
20260507041004 56 328 2.0 5.0 0.00 0.28 0.00 70 1010.3
20260507035004 56 310 3.0 6.0 0.00 0.28 0.28 70 1010.3
20260507034004 56 293 1.0 3.0 0.00 0.28 0.28 70 1010.3
20260507033004 57 256 2.0 6.0 0.00 0.28 0.28 70 1010.3
20260507032504 57 314 3.0 5.0 0.00 0.28 0.28 69 1010.3
20260507032003 57 332 3.0 9.0 0.00 0.28 0.28 69 1010.3
20260507031004 57 323 4.0 8.0 0.00 0.28 0.28 69 1009.5
20260507025503 57 292 3.0 7.0 0.00 0.28 0.28 72 1010.1
20260507024503 57 301 5.0 9.0 0.00 0.28 0.28 71 1009.6
20260507024003 57 309 5.0 10.0 0.00 0.28 0.28 71 1009.7
20260507023505 57 300 5.0 7.0 0.00 0.28 0.28 72 1009.8
20260507023004 57 286 3.0 10.0 0.00 0.28 0.28 72 1010.0
20260507022504 57 308 2.0 6.0 0.00 0.28 0.28 72 1009.8
20260507022004 58 301 3.0 12.0 0.00 0.28 0.28 72 1009.8
20260507021004 58 291 3.0 8.0 0.00 0.28 0.28 72 1009.6
20260507020503 58 301 3.0 8.0 0.00 0.28 0.28 72 1009.6
20260507020004 58 297 3.0 7.0 0.00 0.28 0.28 72 1009.8
20260507015503 58 324 2.0 7.0 0.00 0.28 0.28 72 1009.7
20260507013503 59 300 6.0 12.0 0.00 0.28 0.28 71 1009.6
20260507012003 59 271 6.0 12.0 0.00 0.28 0.28 70 1009.6
20260507011504 59 321 5.0 9.0 0.00 0.28 0.28 70 1009.7
20260507011004 60 312 6.0 10.0 0.00 0.28 0.28 70 1009.6
20260507010504 60 302 5.0 9.0 0.00 0.28 0.28 70 1009.6
20260507003004 61 290 5.0 9.0 0.00 0.28 0.28 71 1009.1
20260507002504 61 297 4.0 8.0 0.00 0.28 0.28 71 1009.2
20260507002003 61 277 2.0 9.0 0.00 0.28 0.28 71 1009.1
20260506235504 62 325 4.0 8.0 0.00 0.28 0.28 70 1008.1
20260506235003 62 297 5.0 12.0 0.00 0.28 0.28 70 1007.8
20260506234504 63 306 5.0 12.0 0.00 0.28 0.28 70 1007.9
20260506233503 63 315 4.0 6.0 0.00 0.28 0.28 72 1007.6
20260506233004 63 275 3.0 9.0 0.00 0.28 0.28 71 1007.5
20260506232503 64 277 3.0 8.0 0.00 0.28 0.28 71 1007.3
20260506231004 64 285 5.0 12.0 0.00 0.28 0.28 73 1007.2
20260506230504 64 308 5.0 7.0 0.00 0.28 0.28 73 1007.2
20260506230004 64 284 6.0 14.0 0.00 0.28 0.28 72 1007.1
20260506224503 65 321 5.0 12.0 0.00 0.28 0.28 74 1007.0
20260506224003 65 304 5.0 10.0 0.00 0.28 0.28 74 1007.0
20260506222503 66 260 3.0 6.0 0.00 0.28 0.28 81 1006.6
20260506221504 66 234 0.0 2.0 0.00 0.28 0.28 81 1006.6
20260506215504 67 171 0.0 1.0 0.00 0.28 0.28 80 1006.4
20260506214004 67 134 0.0 2.0 0.00 0.28 0.28 79 1006.1
20260506213004 67 103 0.0 1.0 0.00 0.28 0.28 80 1005.9
20260506212505 67 195 1.0 3.0 0.00 0.28 0.28 81 1005.9
20260506212003 67 149 1.0 2.0 0.00 0.28 0.28 81 1005.8
20260506211503 67 158 0.0 2.0 0.00 0.28 0.28 81 1005.7
20260506210504 67 162 0.0 3.0 0.00 0.28 0.28 80 1005.6
20260506205504 67 242 0.0 1.0 0.00 0.28 0.28 79 1005.7
20260506204504 67 176 0.0 5.0 0.00 0.28 0.28 79 1005.6
20260506202503 67 179 1.0 3.0 0.00 0.28 0.28 79 1005.6
20260506202003 67 220 1.0 5.0 0.00 0.28 0.28 79 1005.5
20260506200004 67 166 1.0 5.0 0.00 0.28 0.28 82 1005.6
20260506193503 65 291 0.0 2.0 0.00 0.28 0.28 87 1005.9
20260506193004 64 190 1.0 6.0 0.00 0.28 0.28 87 1005.8
20260506191503 63 152 0.0 0.0 0.00 0.28 0.28 88 1005.9
20260506191004 63 152 0.0 3.0 0.00 0.28 0.28 88 1006.0
20260506190004 63 148 0.0 3.0 0.00 0.28 0.28 88 1006.0
20260506185504 62 171 1.0 3.0 0.00 0.28 0.28 88 1006.0
20260506185004 62 149 0.0 3.0 0.00 0.28 0.28 88 1006.1
20260506184504 62 157 0.0 2.0 0.00 0.28 0.28 89 1006.1
20260506183005 62 150 1.0 3.0 0.00 0.28 0.28 89 1006.1
20260506181504 62 161 1.0 2.0 0.01 0.28 0.28 89 1006.2
20260506180503 62 152 0.0 1.0 0.02 0.28 0.28 89 1006.2
20260506180005 62 152 0.0 0.0 0.02 0.28 0.28 89 1006.3
20260506174504 61 152 0.0 2.0 0.02 0.28 0.28 89 1006.4
20260506174003 61 142 0.0 2.0 0.02 0.28 0.28 89 1006.3
20260506173504 61 156 0.0 2.0 0.02 0.28 0.28 89 1006.2
20260506172005 61 168 1.0 3.0 0.01 0.27 0.27 88 1006.2
20260506171504 61 166 1.0 2.0 0.01 0.27 0.27 88 1006.3
20260506170504 61 184 1.0 3.0 0.00 0.26 0.26 88 1006.4
20260506170004 61 158 1.0 3.0 0.00 0.26 0.26 87 1006.3
20260506165504 61 160 0.0 3.0 0.00 0.26 0.26 88 1006.4
20260506164504 61 166 1.0 3.0 0.00 0.26 0.26 88 1006.3
20260506163003 61 166 1.0 3.0 0.00 0.26 0.26 88 1006.3
20260506162503 61 162 1.0 5.0 0.00 0.26 0.26 88 1006.3
20260506161504 61 154 2.0 6.0 0.00 0.26 0.26 89 1006.3
20260506160004 61 169 1.0 3.0 0.00 0.26 0.26 89 1006.3
20260506155504 60 160 1.0 3.0 0.01 0.26 0.26 89 1006.3
20260506154503 60 160 1.0 3.0 0.02 0.26 0.26 89 1006.4
20260506152004 60 162 2.0 5.0 0.06 0.26 0.26 89 1006.2
20260506151504 60 162 3.0 8.0 0.08 0.26 0.26 89 1006.2
20260506151003 60 157 2.0 3.0 0.10 0.26 0.26 89 1006.1
20260506150003 60 154 2.0 8.0 0.12 0.26 0.26 89 1006.3
20260506145505 60 163 3.0 8.0 0.11 0.25 0.25 89 1006.2
20260506144504 60 168 2.0 7.0 0.10 0.24 0.24 88 1006.5
20260506144004 60 151 2.0 3.0 0.10 0.23 0.23 88 1006.6
20260506143003 60 184 2.0 3.0 0.10 0.21 0.21 88 1007.0
20260506140503 60 163 2.0 6.0 0.08 0.14 0.14 87 1006.9
20260506135504 61 157 2.0 5.0 0.08 0.14 0.14 88 1006.7
20260506134004 60 163 2.0 6.0 0.07 0.13 0.13 87 1006.6
20260506133004 60 148 2.0 3.0 0.06 0.11 0.11 86 1006.6
20260506131503 61 155 3.0 6.0 0.03 0.08 0.08 85 1006.6
20260506130004 61 168 1.0 6.0 0.02 0.06 0.06 84 1006.7
20260506125503 61 156 1.0 5.0 0.02 0.06 0.06 84 1006.7
20260506125003 61 155 2.0 5.0 0.03 0.06 0.06 84 1006.6
20260506124004 61 169 2.0 3.0 0.04 0.06 0.06 84 1006.7
20260506123504 61 159 1.0 3.0 0.04 0.06 0.06 83 1006.9
20260506122504 61 156 1.0 2.0 0.05 0.05 0.05 83 1006.9
20260506120504 61 153 1.0 3.0 0.04 0.04 0.04 81 1007.1
20260506114004 63 133 1.0 3.0 0.02 0.02 0.02 76 1007.1
20260506112504 64 180 0.0 3.0 0.00 0.00 0.00 74 1006.8
20260506105004 66 174 0.0 3.0 0.00 0.00 0.00 69 1006.2
20260506104503 66 189 2.0 6.0 0.00 0.00 0.00 68 1006.2
20260506102004 66 194 2.0 5.0 0.00 0.00 0.00 65 1005.9
20260506100504 67 173 1.0 3.0 0.00 0.00 0.00 64 1005.8
20260506095504 67 240 2.0 3.0 0.00 0.00 0.00 64 1005.7
20260506093504 67 166 2.0 5.0 0.00 0.00 0.00 63 1005.4
20260506093003 67 148 2.0 5.0 0.00 0.00 0.00 63 1005.6
20260506092503 67 168 2.0 5.0 0.00 0.00 0.00 62 1005.5
20260506092005 67 172 1.0 3.0 0.00 0.00 0.00 62 1005.7
20260506091504 67 159 1.0 8.0 0.00 0.00 0.00 62 1005.8
20260506091004 67 159 1.0 3.0 0.00 0.00 0.00 62 1005.8
20260506090004 67 161 3.0 6.0 0.00 0.00 0.00 62 1005.8
20260506085503 67 160 2.0 3.0 0.00 0.00 0.00 61 1005.9
20260506085003 67 162 1.0 3.0 0.00 0.00 0.00 61 1006.0
20260506084003 68 172 2.0 5.0 0.00 0.00 0.00 61 1006.1
20260506083003 68 161 2.0 3.0 0.00 0.00 0.00 60 1006.0
20260506082004 68 154 2.0 5.0 0.00 0.00 0.00 60 1006.0
20260506080504 68 159 3.0 6.0 0.00 0.00 0.00 60 1005.9